COSMOS 2297

导读

COSMOS 2297(宇宙 2297)是独联体(CIS)于1994年11月24日发射的人造卫星,隶属于苏联/俄罗斯“宇宙”系列卫星。该卫星运行在高度约838×843千米、倾角71.0°的近地轨道,主要承担空间环境监测、技术试验或军事侦察任务,作为冷战后独联体航天活动的一部分,持续在轨运行至今,完成了既定空间科研与应用目标。

基本信息
目录编号:
23404
目录名称:
COSMOS 2297
国际标识:
1994-077A
轨道中心:
EARTH
卫星名称:
COSMOS 2297
卫星全名:
--
卫星状态:
在轨 (已飞行11555 天)
发射日期:
1994-11-24 UTC
国别 :
俄罗斯(独联体) (CIS)
星等 :
--
轨道信息
数据来源 国际轨道数据 AOE轨道数据
星历时间 2026-07-13T18:53:16+0800
18小时前
查看轨道信息
2026-07-12T07:00:00+0800
2天前
查看轨道信息
半长轴 7224.035km 7224.028km
偏心率 0.0014564 0.0014621
轨道倾角 71.012° 71.014°
近地点辐角 163.650° 165.970°
升交点赤经 195.681° 198.813°
平近点角 196.509° 144.946°
近地点 835.376km 835.328km
远地点 856.42km 856.454km
周期 101.843分钟 101.842分钟
每日圈数 14.139467 14.139488
详细信息
使用方式:
暂无
2D轨道图
3D轨道图
轨道高度分析图
轨道倾角分析图
轨道综合分析图
查看轨道综合分析图